User: anonymous   Login
Location: Del Oro Observatory
(38.3044°N, 104.8119°W)
Time: 12:58:59
(UTC-06:00)
Language:

Cosmos 1602 Rocket - Orbit

View from above orbital plane
View from above orbital plane
View from above satellite
View from above satellite

Ground track
Ground track

The orbit data is extracted from the following two-line orbital elements,

1 15332U 84105B   16178.09552088  .00000098  00000-0  89098-5 0  9998
2 15332  82.5340 160.9069 0022769 103.5420 303.6934 14.83244941713807
Epoch (UTC): 26 June 2016 02:17:33
Eccentricity: 0.0022769
inclination: 82.5340°
perigee height: 603 km
apogee height: 635 km
right ascension of ascending node: 160.9069°
argument of perigee: 103.5420°
revolutions per day: 14.83244941
mean anomaly at epoch: 303.6934°
orbit number at epoch: 71380

The dashed part of the orbit path shows where the satellite is in the earth's shadow,  

DLR